Meteo Giornale » Osservazioni meteo Gran Bretagna » Topcliffe Royal

ore: 21:50 - Osservazioni Meteo Topcliffe Royal
Lat. 54° 12' N Lon. 1° 23' W Alt. 28 metri s.l.m.

coperto

17 °C

Coperto

Temp. 24 Ore

11 °C

20 °C

Sud-Ovest

18.5 Km/h

Dew point 13 °C

Umidità 77 %

Visibilità  10 Km

Il sole sorge alle ore 06:13

Il sole tramonta alle ore 19:57

Data e Ora Cielo e Fenomeni T °C DP °C Um. % Pres. hPa Vis. km Vento km/h
Oggi h: 21:50 coperto Coperto 17 13 77 1016 10 SO 18.5
Oggi h: 21:20 coperto Coperto 17 13 77 1016 10 SO 20.3
Oggi h: 20:50 molto_nuvoloso Molto Nuvoloso 18 12 67 1017 10 SO 14.8
Oggi h: 20:20 coperto Coperto 18 12 67 1016 10 SO 13
Oggi h: 19:50 molto_nuvoloso Molto Nuvoloso 18 12 67 1016 10 SO 18.5
Oggi h: 19:20 nuvoloso Nuvoloso 18 12 67 1016 10 SO 16.7
Oggi h: 18:50 molto_nuvoloso Molto Nuvoloso 18 11 63 1016 10 O/SO 18.5
Oggi h: 18:20 poco_nuvoloso Poco Nuvoloso 19 12 63 1016 10 O 20.3
Oggi h: 17:50 molto_nuvoloso Molto Nuvoloso 19 12 63 1016 10 O/SO 22.2
Oggi h: 17:20 poco_nuvoloso Poco Nuvoloso 19 12 63 1016 10 O/SO 25.9
Oggi h: 16:50 molto_nuvoloso Molto Nuvoloso 19 12 63 1016 10 O/SO 29.6
Oggi h: 16:20 molto_nuvoloso Molto Nuvoloso 19 12 63 1016 10 O/SO 22.2
Oggi h: 15:50 molto_nuvoloso Molto Nuvoloso 19 12 63 1016 10 O/SO 22.2
Oggi h: 15:20 coperto Coperto 19 12 63 1016 10 O/SO 18.5
Oggi h: 14:50 molto_nuvoloso Molto Nuvoloso 19 11 59 1016 10 O/SO 25.9
Oggi h: 14:20 molto_nuvoloso Molto Nuvoloso 19 12 63 1016 10 SO 25.9
Oggi h: 13:50 molto_nuvoloso Molto Nuvoloso 19 11 59 1016 10 SO 16.7
Oggi h: 13:20 molto_nuvoloso Molto Nuvoloso 19 11 59 1016 10 O/SO 22.2
Oggi h: 12:50 coperto Coperto 19 11 59 1016 10 O/SO 25.9
Oggi h: 12:20 coperto Coperto 20 11 56 1016 10 SO 24
Oggi h: 11:50 molto_nuvoloso Molto Nuvoloso 19 11 59 1016 10 SO 25.9
Oggi h: 11:20 coperto Coperto 20 12 59 1016 10 O/SO 25.9
Oggi h: 10:50 molto_nuvoloso Molto Nuvoloso 19 11 59 1016 10 O/SO 22.2
Oggi h: 10:20 nuvoloso Nuvoloso 18 11 63 1017 10 O/SO 25.9
Oggi h: 09:50 nuvoloso Nuvoloso 17 11 67 1017 10 O/SO 20.3
Oggi h: 09:20 molto_nuvoloso Molto Nuvoloso 17 13 77 1017 10 S/SO 20.3
Oggi h: 08:50 sereno Sereno 16 12 77 1017 10 S/SO 13
Oggi h: 08:20 poco_nuvoloso Poco Nuvoloso 16 12 77 1017 10 S 14.8
Oggi h: 07:50 coperto Coperto 15 11 76 1016 10 SO 11.1
Oggi h: 07:20 coperto Coperto 14 11 82 1017 10 O/SO 13
Oggi h: 06:50 coperto Coperto 13 11 87 1016 10 N 5.5
Oggi h: 06:20 coperto Coperto 13 11 87 1016 10 N 5.5
Oggi h: 05:50 coperto Coperto 13 11 87 1016 10 S/SO 9.3
Oggi h: 05:20 coperto Coperto 12 11 93 1016 10 S 7.4
Oggi h: 04:50 coperto Coperto 12 10 87 1016 10 N 5.5
Oggi h: 04:20 coperto Coperto 12 10 87 1016 10 SE 7.4
Oggi h: 03:50 foschia Foschia 14 10 76 1016 10 O 9.3
Oggi h: 03:20 coperto Coperto 11 9 87 1016 10 N 1.8
Oggi h: 02:50 sereno Sereno 12 8 76 1016 10 N 3.7
Oggi h: 02:20 coperto Coperto 13 9 76 1016 10 O 7.4
Oggi h: 01:50 coperto Coperto 12 9 81 1016 10 N 5.5
Oggi h: 01:20 molto_nuvoloso Molto Nuvoloso 13 9 76 1016 10 N 5.5
Oggi h: 00:50 nuvoloso Nuvoloso 14 9 71 1016 10 O/NO 9.3
Oggi h: 00:20 coperto Coperto 14 9 71 1016 10 O/NO 14.8
Ieri h: 23:50 coperto Coperto 14 9 71 1016 10 O/NO 11.1
Ieri h: 23:20 coperto Coperto 15 9 67 1016 10 O 11.1
Ieri h: 22:50 coperto Coperto 14 9 71 1016 10 O 9.3